Dallas Addison, TX

10:50 PM CDT on March 22, 2017 (GMT -0500)
Addison

Weather History for KADS - March, 2014

Change the Weather History Date:

Sunday, March 2, 2014

  Actual Average Record
Temperature  
Mean Temperature 44 °F -  
Max Temperature 70 °F 60 °F 78 °F (2006)
Min Temperature 19 °F 43 °F 19 °F (2014)
Degree Days  
Heating Degree Days 20    
Moisture  
Dew Point 29 °F    
Average Humidity 83    
Maximum Humidity 100    
Minimum Humidity 72    
Precipitation  
Precipitation 0.00 in - - ()
Sea Level Pressure  
Sea Level Pressure 30.15 in    
Wind  
Wind Speed 12 mph (NNW)    
Max Wind Speed 22 mph    
Max Gust Speed 30 mph    
Visibility 7 miles    
Events Rain , Snow , Thunderstorm    
Averages and records for this station are not official NWS values.
T = Trace of Precipitation, MM = Missing Value Source: NWS Daily Summary

Daily Weather History Graph

Daily Weather History Graph

Search for Another Location

Airport or City:

Trip Planner

Search our weather history database for the weather conditions in past years. The results will help you decide how hot, cold, wet, or windy it might be!

Date:

Astronomy

Mar. 02, 2014 Rise Set
Actual Time 6:54 AM CST 6:25 PM CST
Civil Twilight 6:29 AM CST 6:50 PM CST
Nautical Twilight 6:00 AM CST 7:18 PM CST
Astronomical Twilight 5:32 AM CST 7:47 PM CST
Moon 7:32 AM CST (3/2) 8:14 PM CST (3/2)
Length of Visible Light 12h 20m
Length of Day
11h 31m
Waxing Crescent, 3% of the Moon is Illuminated
Mar 2
Waxing Crescent
Mar 8
First Quarter
Mar 16
Full
Mar 23
Last Quarter
Mar 30
New

Hourly Weather History & Observations

Time (CST) Temp. Windchill Dew Point Humidity Pressure Visibility Wind Dir Wind Speed Gust Speed Precip Events Conditions
12:15 AM 70.7 °F - 61.5 °F 73% 29.96 in 10.0 mi Calm Calm - N/A   Overcast
12:35 AM 70.2 °F - 61.3 °F 74% 29.96 in 10.0 mi Calm Calm - N/A   Overcast
12:55 AM 65.7 °F - 56.3 °F 72% 29.95 in 10.0 mi NW 3.5 mph - N/A   Overcast
1:15 AM 59.5 °F - 50.4 °F 72% 29.97 in 10.0 mi NNW 10.4 mph - N/A   Overcast
1:35 AM 57.6 °F - 48.7 °F 72% 29.97 in 10.0 mi North 16.1 mph - N/A   Overcast
1:55 AM 56.5 °F - 48.0 °F 73% 29.98 in 10.0 mi North 16.1 mph - N/A   Overcast
2:15 AM 52.7 °F - 45.7 °F 77% 30.00 in 7.0 mi North 19.6 mph 24.2 mph N/A   Drizzle
2:35 AM 47.8 °F - 41.5 °F 79% 30.01 in 7.0 mi North 16.1 mph 26.5 mph N/A   Drizzle
2:55 AM 43.9 °F 35.9 °F 39.2 °F 84% 30.02 in 5.0 mi North 18.4 mph 26.5 mph N/A Rain Rain
3:15 AM 41.4 °F 33.0 °F 39.2 °F 92% 30.02 in 4.0 mi North 17.3 mph 24.2 mph N/A Rain Light Rain
3:35 AM 38.8 °F 28.5 °F 37.4 °F 95% 30.06 in 4.0 mi North 21.9 mph 27.6 mph N/A Rain Light Rain
3:55 AM 36.9 °F 27.5 °F 36.7 °F 99% 30.06 in 4.0 mi North 16.1 mph 25.3 mph N/A   Drizzle
4:15 AM 36.3 °F 27.5 °F 36.3 °F 100% 30.07 in 5.0 mi North 13.8 mph 21.9 mph N/A   Overcast
4:35 AM 34.5 °F 24.1 °F 34.5 °F 100% 30.08 in 7.0 mi North 17.3 mph 25.3 mph N/A   Overcast
4:55 AM 34.0 °F 23.4 °F 34.0 °F 100% 30.09 in 7.0 mi North 17.3 mph 21.9 mph N/A   Overcast
5:47 AM 32.0 °F 20.8 °F 28.4 °F 87% 30.09 in 5.0 mi NNW 17.3 mph 28.8 mph N/A   Overcast
6:47 AM 30.2 °F 19.3 °F 26.6 °F 86% 30.13 in 5.0 mi NNW 15.0 mph 24.2 mph N/A   Overcast
7:59 AM 28.4 °F 14.7 °F 26.6 °F 93% 30.15 in 5.0 mi North 21.9 mph 29.9 mph N/A   Overcast
8:47 AM 28.4 °F 15.4 °F 26.6 °F 93% 30.15 in 5.0 mi NNW 19.6 mph 28.8 mph N/A   Overcast
9:47 AM 28.4 °F 15.8 °F 24.8 °F 86% 30.17 in 5.0 mi NNW 18.4 mph 25.3 mph N/A   Overcast
11:47 AM 24.8 °F 13.4 °F 21.2 °F 86% 30.17 in 2.0 mi North 12.7 mph 21.9 mph N/A Rain Light Freezing Rain
12:47 PM 24.8 °F 12.9 °F 21.2 °F 86% 30.13 in 3.0 mi NNW 13.8 mph 21.9 mph N/A Snow , Thunderstorm Light Thunderstorms and Snow
1:55 PM 23.0 °F 9.6 °F 19.4 °F 86% 30.14 in 2.0 mi NW 16.1 mph 25.3 mph N/A   Light Freezing Drizzle
2:51 PM 23.0 °F 9.2 °F 19.4 °F 86% 30.13 in 2.0 mi NW 17.3 mph 28.8 mph N/A   Light Freezing Drizzle
4:50 PM 21.2 °F 6.0 °F 17.6 °F 86% 30.20 in 1.5 mi NW 19.6 mph 29.9 mph N/A Rain Light Freezing Rain
5:20 PM 21.2 °F 6.4 °F 15.8 °F 80% 30.17 in 5.0 mi NNW 18.4 mph 25.3 mph N/A   Overcast
7:47 PM 19.4 °F 5.5 °F 14.0 °F 80% 30.25 in 13.0 mi NNW 15.0 mph 24.2 mph N/A   Overcast
8:56 PM 19.4 °F 5.0 °F 14.0 °F 80% 30.30 in 13.0 mi NW 16.1 mph 25.3 mph N/A   Overcast
9:15 PM 21.0 °F 7.1 °F 14.5 °F 76% 30.33 in 10.0 mi NNW 16.1 mph 24.2 mph N/A   Overcast
9:35 PM 21.0 °F 5.4 °F 15.1 °F 78% 30.33 in 10.0 mi NNW 20.7 mph 26.5 mph N/A   Overcast
9:47 PM 19.4 °F 6.0 °F 14.0 °F 80% 30.33 in 13.0 mi NW 13.8 mph 25.3 mph N/A   Overcast
9:55 PM 20.8 °F 7.3 °F 14.5 °F 77% 30.33 in 10.0 mi NNW 15.0 mph 23.0 mph N/A   Overcast
10:15 PM 20.8 °F 5.9 °F 14.0 °F 75% 30.34 in 10.0 mi NNW 18.4 mph 24.2 mph N/A   Overcast
10:35 PM 20.8 °F 7.9 °F 14.7 °F 77% 30.34 in 10.0 mi NNW 13.8 mph 18.4 mph N/A   Overcast
10:55 PM 20.8 °F 6.4 °F 14.2 °F 75% 30.35 in 10.0 mi NNW 17.3 mph 25.3 mph N/A   Overcast
11:15 PM 20.7 °F 7.1 °F 14.0 °F 75% 30.35 in 10.0 mi NNW 15.0 mph 24.2 mph N/A   Overcast
11:35 PM 20.5 °F 5.0 °F 13.8 °F 75% 30.36 in 10.0 mi NNW 19.6 mph 25.3 mph N/A   Overcast
11:55 PM 20.3 °F 4.8 °F 13.5 °F 75% 30.37 in 10.0 mi NNW 19.6 mph - N/A   Overcast